TimePST,TemperatureF,Dew PointF,Humidity,Sea Level PressureIn,VisibilityMPH,Wind Direction,Wind SpeedMPH,Gust SpeedMPH,PrecipitationIn,Events,Conditions,WindDirDegrees,DateUTC
12:53 AM,64.0,60.1,87,30.05,9.0,Calm,Calm,-,N/A,,Overcast,0,2012-11-07 08:53:00
1:53 AM,63.0,60.1,90,30.05,8.0,South,3.5,-,N/A,,Overcast,190,2012-11-07 09:53:00
2:53 AM,62.1,59.0,90,30.04,7.0,SE,3.5,-,N/A,,Overcast,140,2012-11-07 10:53:00
3:53 AM,63.0,57.9,84,30.04,7.0,Calm,Calm,-,N/A,,Overcast,0,2012-11-07 11:53:00
4:53 AM,63.0,57.9,84,30.04,4.0,ESE,4.6,-,N/A,Fog,Patches of Fog,120,2012-11-07 12:53:00
5:53 AM,62.1,57.0,84,30.04,3.0,Calm,Calm,-,N/A,Fog,Patches of Fog,0,2012-11-07 13:53:00
6:15 AM,62.6,57.2,82,30.05,2.5,Variable,3.5,-,N/A,Fog,Patches of Fog,0,2012-11-07 14:15:00
6:53 AM,62.1,57.0,84,30.05,2.0,Calm,Calm,-,N/A,Fog,Patches of Fog,0,2012-11-07 14:53:00
7:53 AM,63.0,57.0,81,30.07,2.0,Calm,Calm,-,N/A,,Overcast,0,2012-11-07 15:53:00
8:53 AM,64.0,57.0,78,30.07,2.0,WSW,5.8,-,N/A,Fog,Patches of Fog,250,2012-11-07 16:53:00
9:53 AM,64.0,57.0,78,30.07,2.5,WNW,5.8,-,N/A,Fog,Patches of Fog,290,2012-11-07 17:53:00
10:01 AM,-9999,-9999,N/A,-9999,-9999.0,North,-9999.0,-,N/A,,Unknown,0,2012-11-07 18:01:00
10:13 AM,64.4,55.4,73,30.06,3.0,West,8.1,-,N/A,Fog,Patches of Fog,260,2012-11-07 18:13:00
10:45 AM,66.2,57.2,73,30.06,4.0,West,8.1,-,N/A,,Scattered Clouds,260,2012-11-07 18:45:00
10:53 AM,66.0,55.9,70,30.05,4.0,West,8.1,-,N/A,,Scattered Clouds,280,2012-11-07 18:53:00
11:53 AM,66.0,55.9,70,30.04,5.0,West,11.5,-,N/A,,Scattered Clouds,260,2012-11-07 19:53:00
12:53 PM,64.9,55.9,73,30.01,7.0,West,9.2,-,N/A,,Scattered Clouds,260,2012-11-07 20:53:00
1:53 PM,64.9,55.9,73,29.99,9.0,WSW,9.2,-,N/A,,Scattered Clouds,250,2012-11-07 21:53:00
2:53 PM,64.9,55.0,70,29.98,10.0,West,10.4,-,N/A,,Partly Cloudy,260,2012-11-07 22:53:00
3:53 PM,64.0,55.9,75,29.97,10.0,WSW,9.2,-,N/A,,Partly Cloudy,240,2012-11-07 23:53:00
4:23 PM,62.6,57.2,82,29.97,10.0,West,9.2,18.4,N/A,,Mostly Cloudy,270,2012-11-08 00:23:00
4:53 PM,63.0,55.9,78,29.97,10.0,WSW,11.5,-,N/A,,Mostly Cloudy,250,2012-11-08 00:53:00
5:53 PM,63.0,57.0,81,29.98,10.0,West,10.4,-,N/A,,Overcast,270,2012-11-08 01:53:00
6:53 PM,62.1,55.9,80,29.98,10.0,West,8.1,-,N/A,,Overcast,270,2012-11-08 02:53:00
7:53 PM,62.1,55.9,80,29.98,10.0,WSW,8.1,-,N/A,,Overcast,250,2012-11-08 03:53:00
8:53 PM,62.1,57.0,84,29.98,10.0,SW,5.8,-,N/A,,Overcast,230,2012-11-08 04:53:00
9:53 PM,62.1,55.9,80,29.99,10.0,WSW,6.9,-,N/A,,Overcast,250,2012-11-08 05:53:00
10:42 PM,62.6,55.4,77,29.99,10.0,West,6.9,-,N/A,,Overcast,260,2012-11-08 06:42:00
10:53 PM,62.1,55.9,80,29.99,10.0,West,6.9,-,N/A,,Overcast,270,2012-11-08 06:53:00
11:53 PM,62.1,55.0,78,29.98,10.0,West,4.6,-,N/A,,Overcast,260,2012-11-08 07:53:00